EXPRESS-AM44

Last updated on Sat Sep 05 2026 00:03:02 GMT+0000 (Coordinated Universal Time)

1 33595U 09007A 26247.73633395 -.00000098 00000+0 00000+0 0 9997 2 33595 3.6601 77.3679 0003649 89.9666 70.6066 1.00271706 53083
UTC large
Height (km)
Speed (km/s)
/
Latitude / Longitude
Inclination (degrees)
Orbital Period (minutes)
Azimuth
Elevation
Range (km)
Doppler Factor

Next 0 passes for location: London (51.5072 / 0.1276)

No passes found over London.
EXPRESS-AM44